Location: Newark
(48.6461°N, 4.3644°W)
Time: 06:40:45
(UTC+00:00)

A-11 Canister half - Pass Details

Date: 27 January 2020
Orbit: 1517 x 1683 km, 47.2° (Epoch: 27 February)

Event Time Altitude Azimuth Distance (km) Brightness Sun altitude
Exits shadow 06:17:46 20° 267° (W) 2,995 9.9 -15.8°
Maximum altitude 06:22:36 31° 223° (SW) 2,439 9.8 -15.0°
Drops below altitude 10° 06:30:22 10° 166° (SSE) 3,715 11.4 -13.8°
Sets 06:33:54 0° 157° (SSE) 4,716 12.1 -13.2°
